Weather in Enschede

Netherlands     52°13′05″N   6°53′30″E
temp.,
°C
wind,
m/s
gust,
m/s
humid.,
%
clouds,
%
prec.,
mm/h
press.,
hPa
HPBL,
m
17 april, sat
sat1723:00+5nne5106898 0.0 1027326
02:00+4nne377560 0.0 1027177
05:00+2n368036 0.0 1027117
08:00+3n36825 0.0 1027192
11:00+9n564983 0.0 1026975
14:00+12n56466 0.0 10241481
17:00+13n664741 0.0 10231599
20:00+9n48615 0.0 1023251
18 april, sun
sun1823:00+5n387612 0.0 1024150
02:00+6n2476100 0.0 1023106
05:00+6n2380100 0.0 102376
08:00+7nne2582100 0.0 1023188
11:00+11nne3472100 0.1 1022556
14:00+13ne246554 0.3 1022971
17:00+15nne345689 0.6 10211398
20:00+12ne367492 0.8 1021115
19 april, mon
mon1923:00+8n3792100 0.1 1021195
02:00+7n3695100 0.1 1020143
05:00+7nw3698100 2.5 1019340
08:00+8e4796100 3.1 1019510
11:00+9e469175 0.1 1019533
14:00+11sse347577 0.3 1020798
17:00+13sse236275 0.1 10191268
20:00+11wsw227499 0.1 101843
20 april, tue
tue2023:00+8w22887 0.0 101922
02:00+6wnw22925 0.0 101814
05:00+6wnw11925 0.0 101810
08:00+7wnw11875 0.0 101862
11:00+13wnw11695 0.0 1018636
14:00+15w215727 0.6 10161317
17:00+16wnw33568 1.4 10151338
20:00+12nw477974 3.4 1016182
21 april, wed
wed2123:00+9nw479474 0.3 1016187
02:00+9nw3592100 0.3 1016183
05:00+8wnw4792100 0.0 1016263
08:00+8nw489389 0.0 1017410
11:00+7nnw598335 0.3 1019886
14:00+11nw794459 0.3 10192076
17:00+10nw910458 0.0 10202032
20:00+6nw710575 0.0 10211028